www.pogodaiklimat.ru

Погода и климат >> Архив погоды >> Россия >> Якутия >> Себян-Кюель


ПОГОДА в Себян-Кюеле

  • Прогноз погоды в Себян-Кюеле
  • Монитор погоды в Себян-Кюеле

АРХИВ ПОГОДЫ в Себян-Кюеле

Время (UTC), дата Ветер
(напр.,м/с)
 
Видим.   Явления Облачность Т
(С)
Тd
(С)
f
(%)
Тe
(С)
Тes
(С)
Комфортность P
(гПа)
Po
(гПа)
Тmin
(С)
Tmax
(С)
R
(мм)
R24
(мм)
S
(см)
06 13.02 штиль 0 50 км в посл. час снег 10/0 2000 м
[As trans]
-33.5 -36.6 73 -34 -33 опасность
обморожения
1019.7 913.6
09 13.02 З 1 50 км в посл. час снег 8/0 2000 м
[Ac As]
-34.8 -37.7 75 -39 -39 опасность
обморожения
1020.9 914.1
12 13.02 штиль 0 50 км {снег} 8/0 2000 м
[Ac As]
-33.2 -36.3 74 -33 -33 опасность
обморожения
1019.8 914.0 -30.2 0.3
15 13.02 З 1 н/о н/о -38.2 -42.6 63 -43 -43 опасность
обморожения
1022.2 913.9
18 13.02 З 2 н/о н/о -42.8 -47.5 60 -52 -52 опасность
обморожения
1024.8 914.1
21 13.02 З 2 н/о н/о -41.0 -45.6 61 -50 -50 опасность
обморожения
1023.4 913.8
00 14.02 З 3 50 км 3/0 2000 м
[Ac trans]
-42.4 -45.0 75 -55 -54 опасность
обморожения
1023.8 913.7 -43.7 26
03 14.02 З 2 50 км 5/0 2000 м
[Ac trans]
-35.7 -38.7 74 -44 -43 опасность
обморожения
1019.8 913.0 -43.8
06 14.02 З 2 50 км 8/0 2000 м
[Ac trans]
-31.1 -34.1 75 -39 -39 опасность
обморожения
1016.8 912.1
09 14.02 З 2 50 км 8/0 2000 м
[Ac trans]
-30.6 -33.6 75 -38 -38 опасность
обморожения
1016.5 912.1
12 14.02 З 1 50 км 3/0 2000 м
[Ac trans]
-36.8 -39.1 79 -42 -42 опасность
обморожения
1019.5 912.2 -28.0
15 14.02 З 2 н/о н/о -39.7 -44.4 61 -49 -49 опасность
обморожения
1020.2 911.3
18 14.02 З 2 н/о н/о -36.0 -40.1 66 -44 -44 опасность
обморожения
1016.0 909.3
21 14.02 З 1 н/о н/о -29.8 -33.4 71 -34 -34 опасность
обморожения
1010.5 906.9
00 15.02 З 1 50 км 10/0 2000 м
[As op]
-26.0 -29.1 75 -30 -30 1004.8 904.8 -41.4 26
03 15.02 Ю 1 50 км 10/0 2000 м
[As op]
-25.0 -28.0 76 -29 -28 1005.1 1003.9
06 15.02 Ю 1 н/о н/о -23.1 -27.2 69 -26 -26 1003.8 903.5
09 15.02 Ю 2 н/о н/о -26.6 -30.2 71 -34 -34 опасность
обморожения
1005.7 903.9
12 15.02 З 2 н/о н/о -36.2 -40.1 67 -45 -45 опасность
обморожения
1010.1 903.9 -22.7
15 15.02 З 3 н/о н/о -35.0 -38.6 70 -46 -46 опасность
обморожения
1008.0 902.6
18 15.02 З 2 н/о н/о -32.0 -35.6 70 -40 -40 опасность
обморожения
1004.4 900.5
21 15.02 З 1 н/о н/о -29.9 -33.3 72 -34 -34 опасность
обморожения
1001.2 898.5
00 16.02 штиль 0 н/о н/о -27.1 -30.3 74 -27 -27 999.1 897.7 -37.5
03 16.02 Ю 1 н/о н/о -24.7 -28.6 70 -28 -28 997.8 897.5
06 16.02 штиль 0 н/о н/о -28.4 -32.5 68 -28 -28 1000.7 898.6
09 16.02 З 1 н/о н/о -35.3 -39.2 67 -40 -40 опасность
обморожения
1006.0 900.6
12 16.02 З 2 н/о н/о -36.3 -40.3 66 -45 -45 опасность
обморожения
1007.4 901.4 -23.5
15 16.02 З 1 н/о н/о -36.8 -40.9 66 -42 -42 опасность
обморожения
1008.2 901.9
18 16.02 З 1 н/о н/о -36.2 -40.1 67 -41 -41 опасность
обморожения
1009.3 903.2
21 16.02 З 1 н/о н/о -34.9 -39.0 66 -40 -40 опасность
обморожения
1010.2 904.5
00 17.02 штиль 0 н/о н/о -31.1 -34.6 71 -31 -31 опасность
обморожения
1010.1 906.0 -38.3
03 17.02 штиль 0 н/о н/о -24.4 -28.9 66 -24 -24 1007.9 906.6
06 17.02 штиль 0 н/о н/о -24.1 -28.1 69 -24 -24 1008.6 907.4
09 17.02 З 1 н/о н/о -30.5 -33.5 75 -35 -35 опасность
обморожения
1013.2 909.0
12 17.02 З 2 н/о н/о -34.8 -38.7 67 -43 -43 опасность
обморожения
1016.3 910.0 -21.3
15 17.02 З 2 н/о н/о -37.4 -41.4 66 -46 -46 опасность
обморожения
1017.9 910.4
18 17.02 З 3 н/о н/о -38.2 -42.4 64 -49 -49 опасность
обморожения
1018.2 910.3
21 17.02 З 3 н/о н/о -38.1 -42.4 64 -49 -49 опасность
обморожения
1018.7 910.8
00 18.02 З 2 н/о н/о -38.2 -42.4 64 -47 -47 опасность
обморожения
1019.4 911.4 -38.7
03 18.02 З 1 50 км ясно -30.2 -34.7 65 -34 -33 опасность
обморожения
1016.0 911.7
06 18.02 штиль 0 50 км ясно -33.0 -38.2 59 -33 -32 опасность
обморожения
1017.6 912.1
09 18.02 З 2 50 км ясно -37.5 -41.2 68 -46 -46 опасность
обморожения
1021.2 913.4
12 18.02 З 2 н/о н/о -34.7 -38.6 67 -43 -43 опасность
обморожения
1021.2 914.5 -25.4
15 18.02 З 2 н/о н/о -36.2 -40.1 67 -45 -45 опасность
обморожения
1022.4 914.9
18 18.02 З 2 н/о н/о -37.6 -41.7 65 -46 -46 опасность
обморожения
1023.0 914.9
21 18.02 З 3 н/о н/о -36.6 -40.6 66 -48 -48 опасность
обморожения
1022.6 914.9
00 19.02 штиль 0 50 км 8/0
[Ci fib]
-37.6 -41.9 64 -38 -37 опасность
обморожения
1023.1 915.1 -38.7 26
03 19.02 З 1 50 км 10/0
[Ci fib]
-33.8 -37.5 69 -38 -37 опасность
обморожения
1020.5 914.4
06 19.02 Ю 1 50 км 10/0
[Ci fib]
-28.0 -33.5 59 -32 -32 опасность
обморожения
1017.3 913.9
09 19.02 штиль 0 50 км 10/0
[Ci fib]
-32.0 -35.7 70 -32 -32 опасность
обморожения
1003.4 914.3
00 20.02 штиль 0 50 км ясно -37.6 -41.2 69 -38 -37 опасность
обморожения
1026.8 918.4 0.0 26

 

Местоположение метеостанции Себян-Кюель (Якутия, Россия): широта 65.30 долгота 130.00 высота над уровнем моря 777 м.

В архиве по умолчанию представлена погода в Себян-Кюеле за последнюю неделю. Архивные данные за месяц целиком и за предыдущие месяцы, начиная с января 2011 года, Вы можете получить, выбрав интересующий диапазон дат из раскрывающегося списка и нажав кнопку "Ввод!".


*Определитесь, кто Вы:
робот инопланетянин человек

Внимание! Время в таблицах - всемирное. Для получения местного времени необходимо прибавить поправку, которая равна 9 ч.

Смотрите также архив погоды в соседних городах и на ближайших метеорологических станциях:

Погода в Сеген-Кюеле (Якутия, Россия) (145 км)
Погода в Екюччю (Якутия, Россия) (179 км)
Погода в Сангаре (Якутия, Россия) (195 км)
Погода в Батамае (Якутия, Россия) (200 км)
Погода в Сого-Хае (Якутия, Россия) (205 км)
Погода в Верхоянском Перевозе (Якутия, Россия) (240 км)
Погода в Иэме (Якутия, Россия) (269 км)
Погода в Бестяхской Звероферме (Якутия, Россия) (274 км)
Погода в Батагай-Алыте (Якутия, Россия) (276 км)
Погода в Намцах (Якутия, Россия) (288 км)

Пояснения к столбцам:

Ветер - указаны скорость ветра в м/с - средняя за 10 мин, порывы в срок и между сроками (в фигурных скобках) и направление, откуда дует ветер: С - северный, СВ - северо-восточный, В - восточный, ЮВ - юго-восточный, Ю - южный, ЮЗ - юго-западный, З - западный, СЗ - северо-западный.
Видимость - горизонтальная дальность видимости в метрах или километрах. При видимости от 1 до 10 км при отсутствии осадков обычно наблюдается дымка, при ухудшении видимости до 1 км и менее - туман. В сухую погоду видимость может ухудшаться дымом, пылью или мглою.
Явления - указаны атмосферные явления, наблюдавшиеся в срок или в последний час перед сроком; фигурными скобками обозначены явления, наблюдавшиеся между сроками (за 1-3 часа до срока); квадратными скобками обозначены град или гололедные отложения с указанием их диаметра в мм.
Облачность - указаны через наклонную черту общая и нижняя облачность в баллах и высота нижней границы облаков в метрах; квадратными скобками обозначены формы облаков: Ci - перистые, Cs - перисто-слоистые, Cc - перисто-кучевые, Ac - высококучевые, As - высокослоистые, Sc - слоисто-кучевые, Ns - слоисто-дождевые, Cu - кучевые, Cb - кучево-дождевые. Подробнее классификацию облаков см. в Атласе облаков (PDF).
T - Температура воздуха - температура, измеренная на высоте 2 м над землей.
Td - Температура точки росы - температура, при понижении до которой содержащийся в воздухе водяной пар достигнет насыщения.
f - Относительная влажность воздуха - влажноcть воздуха, измеренная на высоте 2 м над землей.
Te - Эффективная температура - температура, которую ощущает одетый по сезону человек в тени. Характеристика душности погоды. При расчете учитывается влияние влажности воздуха и скорости ветра на теплоощущения человека.
Tes - Эффективная температура на солнце - температура, которую ощущает человек, с поправкой на солнечный нагрев. Характеристика знойности погоды. Зависит от высоты солнца над горизонтом, облачности и скорости ветра. Ночью, в пасмурную погоду, а также при ветре 12 м/с и более поправка равна нулю.
P - Атмосферное давление - приведенное к уровню моря атмосферное давление.
Po - Атмосферное давление - измеренное на уровне метеостанции атмосферное давление.
Tmin - Минимальная температура - минимум температуры воздуха на высоте 2 м над землей.
Tmax - Максимальная температура - максимум температуры воздуха на высоте 2 м над землей.
R - Количество осадков - Количество выпавших осадков за период времени, мм. При наведении курсора мыши на число - период времени, за который выпало указанное количество осадков.
R24 - Количество осадков - Количество выпавших осадков за 24 часа, мм.
S - Снежный покров - Высота снежного покрова, см. При наведении курсора мыши на число - состояние снежного покрова и степень покрытия местности в баллах.